Accueil
METAR-TAF:

METAR-TAF

Aéroports :

Paris-Orly, France

Aéroport de Paris-Orly

latitude: 48-44N, longitude: 002-24E, altitude: 89 m

Observation

Le bulletin a été fait il y a 27 minutes, à 12:00 UTC
Vent 13 kt de nord/nord-est
Température 2°C
Humidité 55%
Pression 1015 hPa
Visibilité 10 km ou plus
pas de nuages en-dessous de 1500 mètres et pas de cumulonimbus.

METAR: LFPO 231200Z 03013KT CAVOK 02/M06 Q1015 NOSIG

Heure: 13:27 (12:27 UTC)

Prévision

Le bulletin a été fait il y a 1 heure et 27 minutes, à 11:00 UTC
Prévision valable du 23 à 12 UTC au 24 à 18 UTC
Vent 13 kt de nord-est
Visibilité 10 km ou plus
pas de nuages en-dessous de 1500 mètres et pas de cumulonimbus.

TAF: LFPO 231100Z 2312/2418 05013KT CAVOK

Observations et prévisions météorologiques de plus de 4000 aéroports (messages METAR et TAF).

Les stations disponibles sont représentées par des disques jaunes et rouges sur la carte.

Passer la souris dessus pour voir le nom de la station.

Cliquer dessus pour voir les observations et prévisions météorologiques.

Pour changer de carte: cliquez sur les boutons verts avec une croix noire pour zoomer, sur le bouton vert avec un tiret pour effectuer un zoom arrière, ou sur les flèches vertes pour les cartes adjacentes.


METAR-TAF: